| time (UTC) | temp C | wind direction | speed KPH | gust KPH | rain 1hr cm | rain 24hr cm | rain mn cm | humidity % | barometer mb |
| 20260504004821 | 12 | 229 | 1.6 | 3.2 | 0.00 | 0.00 | 0.00 | 39 | 1013.0 |
| 20260504004332 | 13 | 229 | 1.6 | 3.2 | 0.00 | 0.00 | 0.00 | 39 | 1012.9 |
| 20260504003828 | 13 | 229 | 1.6 | 3.2 | 0.00 | 0.00 | 0.00 | 39 | 1012.8 |
| 20260504003339 | 13 | 229 | 1.6 | 3.2 | 0.00 | 0.00 | 0.00 | 38 | 1012.8 |
| 20260504002829 | 13 | 234 | 1.6 | 4.8 | 0.00 | 0.00 | 0.00 | 37 | 1012.7 |
| 20260504002321 | 13 | 236 | 1.6 | 6.4 | 0.00 | 0.00 | 0.00 | 36 | 1012.7 |
| 20260504001832 | 13 | 215 | 3.2 | 9.7 | 0.00 | 0.00 | 0.00 | 36 | 1012.6 |
| 20260504001345 | 13 | 232 | 1.6 | 9.7 | 0.00 | 0.00 | 0.00 | 35 | 1012.5 |
| 20260504000815 | 13 | 240 | 1.6 | 8.0 | 0.00 | 0.00 | 0.00 | 34 | 1012.5 |
| 20260504000346 | 14 | 266 | 3.2 | 8.0 | 0.00 | 0.00 | 0.00 | 34 | 1012.4 |
| 20260503235816 | 14 | 240 | 4.8 | 11.3 | 0.00 | 0.00 | 0.00 | 34 | 1012.3 |
| 20260503235348 | 14 | 276 | 4.8 | 9.7 | 0.00 | 0.00 | 0.00 | 33 | 1012.2 |
| 20260503234818 | 14 | 211 | 4.8 | 12.9 | 0.00 | 0.00 | 0.00 | 33 | 1012.2 |
| 20260503234314 | 15 | 239 | 6.4 | 12.9 | 0.00 | 0.00 | 0.00 | 32 | 1012.1 |
| 20260503233828 | 15 | 274 | 6.4 | 14.5 | 0.00 | 0.00 | 0.00 | 32 | 1012.1 |
| 20260503233320 | 15 | 253 | 11.3 | 17.7 | 0.00 | 0.00 | 0.00 | 31 | 1012.0 |
| 20260503232815 | 15 | 261 | 9.7 | 16.1 | 0.00 | 0.00 | 0.00 | 31 | 1012.0 |
| 20260503232326 | 15 | 281 | 8.0 | 12.9 | 0.00 | 0.00 | 0.00 | 31 | 1012.1 |
| 20260503231817 | 15 | 272 | 4.8 | 12.9 | 0.00 | 0.00 | 0.00 | 31 | 1012.2 |
| 20260503231328 | 15 | 261 | 4.8 | 12.9 | 0.00 | 0.00 | 0.00 | 30 | 1012.1 |
| 20260503230840 | 15 | 302 | 6.4 | 12.9 | 0.00 | 0.00 | 0.00 | 31 | 1012.1 |
| 20260503230315 | 15 | 309 | 6.4 | 16.1 | 0.00 | 0.00 | 0.00 | 30 | 1012.0 |
| 20260503225826 | 15 | 295 | 6.4 | 19.3 | 0.00 | 0.00 | 0.00 | 30 | 1011.9 |
| 20260503225318 | 15 | 275 | 4.8 | 17.7 | 0.00 | 0.00 | 0.00 | 30 | 1011.8 |
| 20260503224829 | 16 | 285 | 8.0 | 22.5 | 0.00 | 0.00 | 0.00 | 30 | 1011.8 |
| 20260503224321 | 16 | 5 | 3.2 | 22.5 | 0.00 | 0.00 | 0.00 | 30 | 1011.8 |
| 20260503223833 | 16 | 313 | 6.4 | 25.7 | 0.00 | 0.00 | 0.00 | 29 | 1011.8 |
| 20260503223326 | 16 | 301 | 9.7 | 25.7 | 0.00 | 0.00 | 0.00 | 28 | 1011.8 |
| 20260503222818 | 16 | 294 | 6.4 | 25.7 | 0.00 | 0.00 | 0.00 | 28 | 1011.8 |
| 20260503222351 | 16 | 314 | 6.4 | 17.7 | 0.00 | 0.00 | 0.00 | 29 | 1011.7 |
| 20260503221825 | 16 | 288 | 8.0 | 17.7 | 0.00 | 0.00 | 0.00 | 29 | 1011.7 |
| 20260503221324 | 16 | 345 | 8.0 | 17.7 | 0.00 | 0.00 | 0.00 | 29 | 1011.6 |
| 20260503220815 | 16 | 307 | 8.0 | 30.6 | 0.00 | 0.00 | 0.00 | 30 | 1011.7 |
| 20260503220327 | 16 | 259 | 4.8 | 30.6 | 0.00 | 0.00 | 0.00 | 29 | 1011.8 |
| 20260503215839 | 16 | 271 | 11.3 | 29.0 | 0.00 | 0.00 | 0.00 | 28 | 1011.7 |
| 20260503215333 | 16 | 277 | 12.9 | 30.6 | 0.00 | 0.00 | 0.00 | 28 | 1011.7 |
| 20260503214845 | 16 | 302 | 14.5 | 30.6 | 0.00 | 0.00 | 0.00 | 28 | 1011.6 |
| 20260503214316 | 16 | 313 | 11.3 | 25.7 | 0.00 | 0.00 | 0.00 | 29 | 1011.6 |
| 20260503213827 | 16 | 306 | 9.7 | 19.3 | 0.00 | 0.00 | 0.00 | 29 | 1011.6 |
| 20260503213339 | 16 | 327 | 8.0 | 22.5 | 0.00 | 0.00 | 0.00 | 29 | 1011.7 |
| 20260503212829 | 16 | 5 | 11.3 | 22.5 | 0.00 | 0.00 | 0.00 | 29 | 1011.5 |
| 20260503212325 | 16 | 254 | 8.0 | 20.9 | 0.00 | 0.00 | 0.00 | 29 | 1011.5 |
| 20260503211817 | 16 | 305 | 11.3 | 20.9 | 0.00 | 0.00 | 0.00 | 29 | 1011.6 |
| 20260503210826 | 17 | 325 | 11.3 | 29.0 | 0.00 | 0.00 | 0.00 | 30 | 1011.6 |
| 20260503210318 | 16 | 347 | 6.4 | 30.6 | 0.00 | 0.00 | 0.00 | 29 | 1011.4 |
| 20260503205830 | 17 | 310 | 9.7 | 29.0 | 0.00 | 0.00 | 0.00 | 29 | 1011.4 |
| 20260503205321 | 17 | 296 | 6.4 | 17.7 | 0.00 | 0.00 | 0.00 | 29 | 1011.4 |
| 20260503204834 | 16 | 355 | 8.0 | 25.7 | 0.00 | 0.00 | 0.00 | 29 | 1011.4 |
| 20260503204330 | 16 | 328 | 8.0 | 25.7 | 0.00 | 0.00 | 0.00 | 29 | 1011.5 |
| 20260503203820 | 16 | 323 | 11.3 | 24.1 | 0.00 | 0.00 | 0.00 | 29 | 1011.4 |
| 20260503203333 | 16 | 285 | 8.0 | 25.7 | 0.00 | 0.00 | 0.00 | 30 | 1011.4 |
| 20260503202823 | 16 | 348 | 9.7 | 25.7 | 0.00 | 0.00 | 0.00 | 29 | 1011.3 |
| 20260503202315 | 16 | 292 | 8.0 | 22.5 | 0.00 | 0.00 | 0.00 | 30 | 1011.4 |
| 20260503201826 | 16 | 253 | 3.2 | 27.4 | 0.00 | 0.00 | 0.00 | 30 | 1011.4 |
| 20260503201317 | 16 | 290 | 11.3 | 27.4 | 0.00 | 0.00 | 0.00 | 30 | 1011.6 |
| 20260503200851 | 16 | 288 | 8.0 | 27.4 | 0.00 | 0.00 | 0.00 | 31 | 1011.6 |
| 20260503200322 | 16 | 263 | 9.7 | 29.0 | 0.00 | 0.00 | 0.00 | 30 | 1011.6 |
| 20260503195818 | 16 | 319 | 8.0 | 27.4 | 0.00 | 0.00 | 0.00 | 30 | 1011.6 |
| 20260503195329 | 17 | 348 | 6.4 | 27.4 | 0.00 | 0.00 | 0.00 | 31 | 1011.7 |
| 20260503194820 | 17 | 294 | 9.7 | 27.4 | 0.00 | 0.00 | 0.00 | 30 | 1011.7 |
| 20260503194332 | 17 | 58 | 8.0 | 27.4 | 0.00 | 0.00 | 0.00 | 33 | 1011.8 |
| 20260503193823 | 16 | 289 | 9.7 | 27.4 | 0.00 | 0.00 | 0.00 | 31 | 1011.8 |
| 20260503193315 | 16 | 303 | 6.4 | 24.1 | 0.00 | 0.00 | 0.00 | 31 | 1011.8 |
| 20260503192826 | 16 | 257 | 11.3 | 24.1 | 0.00 | 0.00 | 0.00 | 33 | 1011.9 |
| 20260503192317 | 16 | 284 | 8.0 | 33.8 | 0.00 | 0.00 | 0.00 | 32 | 1012.0 |
| 20260503191849 | 16 | 327 | 14.5 | 33.8 | 0.00 | 0.00 | 0.00 | 32 | 1012.0 |
| 20260503191324 | 16 | 269 | 16.1 | 32.2 | 0.00 | 0.00 | 0.00 | 31 | 1012.0 |
| 20260503190819 | 17 | 305 | 6.4 | 22.5 | 0.00 | 0.00 | 0.00 | 33 | 1012.1 |
| 20260503190330 | 16 | 281 | 8.0 | 29.0 | 0.00 | 0.00 | 0.00 | 33 | 1012.1 |
| 20260503185821 | 16 | 290 | 9.7 | 27.4 | 0.00 | 0.00 | 0.00 | 31 | 1012.1 |
| 20260503185333 | 16 | 287 | 9.7 | 27.4 | 0.00 | 0.00 | 0.00 | 32 | 1012.2 |
| 20260503184825 | 16 | 303 | 8.0 | 20.9 | 0.00 | 0.00 | 0.00 | 32 | 1012.2 |
| 20260503184316 | 16 | 298 | 4.8 | 17.7 | 0.00 | 0.00 | 0.00 | 34 | 1012.2 |
| 20260503183827 | 15 | 339 | 6.4 | 22.5 | 0.00 | 0.00 | 0.00 | 33 | 1012.2 |
| 20260503183322 | 16 | 296 | 11.3 | 22.5 | 0.00 | 0.00 | 0.00 | 32 | 1012.4 |
| 20260503182834 | 15 | 291 | 6.4 | 20.9 | 0.00 | 0.00 | 0.00 | 35 | 1012.3 |
| 20260503182326 | 15 | 299 | 8.0 | 20.9 | 0.00 | 0.00 | 0.00 | 34 | 1012.4 |
| 20260503181816 | 15 | 70 | 8.0 | 24.1 | 0.00 | 0.00 | 0.00 | 36 | 1012.3 |
| 20260503181328 | 14 | 296 | 4.8 | 24.1 | 0.00 | 0.00 | 0.00 | 35 | 1012.4 |
| 20260503180312 | 15 | 327 | 8.0 | 22.5 | 0.00 | 0.00 | 0.00 | 34 | 1012.4 |
| 20260503175826 | 15 | 304 | 6.4 | 24.1 | 0.00 | 0.00 | 0.00 | 35 | 1012.3 |
| 20260503175322 | 15 | 315 | 6.4 | 30.6 | 0.00 | 0.00 | 0.00 | 34 | 1012.4 |
| 20260503174812 | 14 | 252 | 11.3 | 30.6 | 0.00 | 0.00 | 0.00 | 35 | 1012.5 |
| 20260503174327 | 14 | 302 | 6.4 | 25.7 | 0.00 | 0.00 | 0.00 | 36 | 1012.5 |
| 20260503173819 | 14 | 344 | 8.0 | 29.0 | 0.00 | 0.00 | 0.00 | 36 | 1012.6 |
| 20260503173331 | 14 | 40 | 6.4 | 24.1 | 0.00 | 0.00 | 0.00 | 36 | 1012.5 |
| 20260503172845 | 14 | 308 | 9.7 | 29.0 | 0.00 | 0.00 | 0.00 | 34 | 1012.5 |
| 20260503172314 | 15 | 343 | 12.9 | 29.0 | 0.00 | 0.00 | 0.00 | 34 | 1012.5 |
| 20260503171826 | 15 | 351 | 11.3 | 27.4 | 0.00 | 0.00 | 0.00 | 34 | 1012.4 |
| 20260503171321 | 14 | 350 | 11.3 | 27.4 | 0.00 | 0.00 | 0.00 | 36 | 1012.4 |
| 20260503170833 | 13 | 312 | 4.8 | 25.7 | 0.00 | 0.00 | 0.00 | 40 | 1012.5 |
| 20260503170345 | 13 | 269 | 11.3 | 25.7 | 0.00 | 0.00 | 0.00 | 37 | 1012.4 |
| 20260503150821 | 13 | 349 | 12.9 | 33.8 | 0.00 | 0.00 | 0.00 | 39 | 1012.9 |
| 20260503150315 | 13 | 317 | 12.9 | 33.8 | 0.00 | 0.00 | 0.00 | 40 | 1012.9 |
| 20260503131324 | 10 | 290 | 4.8 | 27.4 | 0.00 | 0.00 | 0.00 | 51 | 1012.8 |
| 20260503130815 | 10 | 281 | 9.7 | 20.9 | 0.00 | 0.00 | 0.00 | 51 | 1012.8 |
| 20260503130327 | 10 | 345 | 8.0 | 25.7 | 0.00 | 0.00 | 0.00 | 52 | 1012.8 |
| 20260503110812 | 8 | 340 | 4.8 | 12.9 | 0.00 | 0.00 | 0.00 | 56 | 1011.9 |
| 20260503110346 | 8 | 310 | 3.2 | 12.9 | 0.00 | 0.00 | 0.00 | 56 | 1011.9 |
| 20260503090339 | 8 | 327 | 9.7 | 17.7 | 0.00 | 0.00 | 0.00 | 52 | 1010.2 |
| 20260503081343 | 9 | 337 | 3.2 | 12.9 | 0.00 | 0.00 | 0.00 | 52 | 1010.2 |
| 20260503080818 | 9 | 333 | 4.8 | 16.1 | 0.00 | 0.00 | 0.00 | 52 | 1010.1 |
| 20260503080349 | 9 | 350 | 4.8 | 16.1 | 0.00 | 0.00 | 0.00 | 52 | 1010.1 |
| 20260503072815 | 10 | 315 | 4.8 | 17.7 | 0.00 | 0.00 | 0.00 | 50 | 1010.1 |
| 20260503071826 | 10 | 342 | 6.4 | 12.9 | 0.00 | 0.00 | 0.00 | 51 | 1010.2 |
| 20260503071316 | 10 | 340 | 6.4 | 12.9 | 0.00 | 0.00 | 0.00 | 51 | 1010.2 |
| 20260503070828 | 10 | 327 | 4.8 | 12.9 | 0.00 | 0.00 | 0.00 | 51 | 1010.2 |
| 20260503070319 | 10 | 337 | 4.8 | 11.3 | 0.00 | 0.00 | 0.00 | 51 | 1010.2 |
| 20260503054825 | 10 | 333 | 4.8 | 14.5 | 0.00 | 0.00 | 0.00 | 52 | 1010.4 |
| 20260503054316 | 10 | 333 | 6.4 | 14.5 | 0.00 | 0.00 | 0.00 | 52 | 1010.5 |
| 20260503053829 | 10 | 318 | 3.2 | 12.9 | 0.00 | 0.00 | 0.00 | 53 | 1010.5 |
| 20260503053320 | 10 | 332 | 4.8 | 12.9 | 0.00 | 0.00 | 0.00 | 52 | 1010.4 |
| 20260503052831 | 10 | 327 | 4.8 | 12.9 | 0.00 | 0.00 | 0.00 | 53 | 1010.4 |
| 20260503052323 | 10 | 347 | 4.8 | 11.3 | 0.00 | 0.00 | 0.00 | 53 | 1010.3 |
| 20260503051814 | 10 | 355 | 4.8 | 9.7 | 0.00 | 0.00 | 0.00 | 54 | 1010.5 |
| 20260503051330 | 10 | 350 | 3.2 | 12.9 | 0.00 | 0.00 | 0.00 | 54 | 1010.5 |
| 20260503050825 | 10 | 346 | 4.8 | 12.9 | 0.00 | 0.00 | 0.00 | 54 | 1010.4 |
| 20260503050319 | 10 | 323 | 6.4 | 14.5 | 0.00 | 0.00 | 0.00 | 54 | 1010.5 |
| 20260503045832 | 10 | 315 | 4.8 | 14.5 | 0.00 | 0.00 | 0.00 | 55 | 1010.5 |
| 20260503045324 | 10 | 334 | 3.2 | 12.9 | 0.00 | 0.00 | 0.00 | 56 | 1010.7 |
| 20260503044816 | 10 | 336 | 6.4 | 12.9 | 0.00 | 0.00 | 0.00 | 56 | 1010.7 |
| 20260503044347 | 10 | 317 | 4.8 | 11.3 | 0.00 | 0.00 | 0.00 | 57 | 1010.9 |
| 20260503043818 | 10 | 325 | 1.6 | 11.3 | 0.00 | 0.00 | 0.00 | 57 | 1010.9 |
| 20260503043330 | 10 | 350 | 3.2 | 9.7 | 0.00 | 0.00 | 0.00 | 58 | 1011.0 |
| 20260503042825 | 10 | 335 | 1.6 | 12.9 | 0.00 | 0.00 | 0.00 | 58 | 1011.1 |
| 20260503042336 | 10 | 324 | 3.2 | 12.9 | 0.00 | 0.00 | 0.00 | 58 | 1011.1 |
| 20260503041827 | 10 | 332 | 3.2 | 9.7 | 0.00 | 0.00 | 0.00 | 59 | 1011.1 |
| 20260503041321 | 10 | 327 | 3.2 | 9.7 | 0.00 | 0.00 | 0.00 | 60 | 1011.1 |
| 20260503040853 | 10 | 329 | 1.6 | 6.4 | 0.00 | 0.00 | 0.00 | 61 | 1011.1 |
| 20260503040323 | 10 | 333 | 1.6 | 6.4 | 0.00 | 0.00 | 0.00 | 62 | 1011.0 |
| 20260503035854 | 10 | 324 | 3.2 | 9.7 | 0.00 | 0.00 | 0.00 | 63 | 1010.9 |
| 20260503035344 | 10 | 347 | 3.2 | 9.7 | 0.00 | 0.00 | 0.00 | 64 | 1010.8 |
| 20260503034814 | 10 | 348 | 4.8 | 6.4 | 0.00 | 0.00 | 0.00 | 65 | 1010.8 |
| 20260503034325 | 10 | 340 | 1.6 | 8.0 | 0.00 | 0.00 | 0.00 | 67 | 1011.0 |
| 20260503033821 | 10 | 333 | 1.6 | 8.0 | 0.00 | 0.00 | 0.00 | 67 | 1011.0 |
| 20260503033333 | 10 | 323 | 1.6 | 8.0 | 0.00 | 0.00 | 0.00 | 67 | 1011.0 |
| 20260503032824 | 10 | 327 | 3.2 | 11.3 | 0.00 | 0.00 | 0.00 | 67 | 1010.9 |
| 20260503032336 | 10 | 342 | 4.8 | 11.3 | 0.00 | 0.00 | 0.00 | 69 | 1011.0 |
| 20260503031826 | 10 | 322 | 4.8 | 9.7 | 0.00 | 0.00 | 0.00 | 71 | 1011.1 |
| 20260503031318 | 10 | 329 | 3.2 | 8.0 | 0.00 | 0.00 | 0.00 | 73 | 1011.0 |
| 20260503030830 | 11 | 313 | 1.6 | 4.8 | 0.00 | 0.00 | 0.00 | 74 | 1011.0 |
| 20260503030320 | 11 | 5 | 1.6 | 4.8 | 0.00 | 0.00 | 0.00 | 75 | 1011.0 |
| 20260503025815 | 11 | 332 | 0.0 | 8.0 | 0.00 | 0.00 | 0.00 | 75 | 1011.0 |
| 20260503024825 | 11 | 335 | 0.0 | 4.8 | 0.00 | 0.00 | 0.00 | 77 | 1010.9 |
| 20260503024315 | 11 | 339 | 3.2 | 8.0 | 0.00 | 0.00 | 0.00 | 78 | 1010.8 |
| 20260503023827 | 11 | 319 | 3.2 | 8.0 | 0.00 | 0.00 | 0.00 | 79 | 1010.8 |
| 20260503023319 | 11 | 333 | 1.6 | 6.4 | 0.00 | 0.00 | 0.00 | 79 | 1010.9 |
| 20260503022831 | 11 | 288 | 1.6 | 6.4 | 0.00 | 0.00 | 0.00 | 79 | 1011.0 |
| 20260503022342 | 11 | 286 | 1.6 | 4.8 | 0.00 | 0.00 | 0.00 | 79 | 1011.1 |
| 20260503021852 | 11 | 286 | 3.2 | 6.4 | 0.00 | 0.00 | 0.00 | 79 | 1011.2 |
| 20260503021323 | 11 | 253 | 4.8 | 8.0 | 0.00 | 0.00 | 0.00 | 78 | 1011.1 |
| 20260503020834 | 11 | 287 | 3.2 | 6.4 | 0.00 | 0.00 | 0.00 | 78 | 1011.0 |
| 20260503020330 | 11 | 283 | 4.8 | 6.4 | 0.00 | 0.00 | 0.00 | 78 | 1011.1 |
| 20260503015822 | 11 | 261 | 1.6 | 6.4 | 0.00 | 0.00 | 0.00 | 78 | 1010.9 |
| 20260503015334 | 11 | 252 | 3.2 | 8.0 | 0.00 | 0.00 | 0.00 | 78 | 1011.1 |
| 20260503014824 | 11 | 234 | 1.6 | 4.8 | 0.00 | 0.00 | 0.00 | 78 | 1011.1 |
| 20260503014316 | 11 | 265 | 3.2 | 6.4 | 0.00 | 0.00 | 0.00 | 77 | 1011.2 |
| 20260503013828 | 11 | 267 | 3.2 | 6.4 | 0.00 | 0.00 | 0.00 | 77 | 1011.2 |
| 20260503013322 | 11 | 277 | 3.2 | 8.0 | 0.00 | 0.00 | 0.00 | 77 | 1011.1 |
| 20260503012833 | 11 | 275 | 3.2 | 8.0 | 0.00 | 0.00 | 0.00 | 77 | 1011.1 |
| 20260503012328 | 11 | 239 | 3.2 | 6.4 | 0.00 | 0.00 | 0.00 | 76 | 1011.2 |
| 20260503011820 | 11 | 238 | 3.2 | 6.4 | 0.00 | 0.00 | 0.00 | 76 | 1011.1 |
| 20260503011331 | 11 | 246 | 3.2 | 6.4 | 0.00 | 0.00 | 0.00 | 76 | 1011.2 |
| 20260503010843 | 11 | 202 | 1.6 | 4.8 | 0.00 | 0.00 | 0.00 | 76 | 1011.1 |
| 20260503010314 | 11 | 228 | 1.6 | 4.8 | 0.00 | 0.00 | 0.00 | 75 | 1010.9 |
| 20260503005829 | 11 | 203 | 0.0 | 4.8 | 0.00 | 0.00 | 0.00 | 75 | 1010.9 |
| 20260503005341 | 11 | 188 | 1.6 | 4.8 | 0.00 | 0.00 | 0.00 | 75 | 1010.9 |